[Show "Revision History"] [Show "General Page Infos"] [Show "Page hits and edits"]

Revision History

Showing page edit history entries from 1 to 66 out of 66 entries total. (5 | 10 | 25 | 50 | 100 | 200 items per page)

# Date Size Editor Comment Action
66 2012-02-01 00:02:55 26082 to previous JukkaZitting Remove Cordova report. It belongs to February2012 view
65 2012-01-31 23:26:12 27349 to previous JukkaZitting Sign off and reflow the Cordova report. view
64 2012-01-31 23:05:15 27318 to previous GianugoRabellino   view
63 2012-01-31 23:02:39 27315 to previous brianleroux   view
62 2011-03-04 10:34:24 26082 to previous RossGardler sign off Jena report view
61 2011-02-15 12:56:20 26072 to previous GlenDaniels   view
60 2011-02-15 12:01:46 25886 to previous witek.wolejszo   view
59 2011-02-15 06:34:19 24417 to previous GianugoRabellino   view
58 2011-02-15 05:38:39 24409 to previous abuobeida   view
57 2011-02-14 21:32:02 23868 to previous CarlTrieloff   view
56 2011-02-14 16:26:22 23853 to previous ivysummer   view
55 2011-02-14 12:29:46 23525 to previous mariosandreou   view
54 2011-02-14 04:06:06 22089 to previous TomWhite2   view
53 2011-02-13 18:18:43 22080 to previous MateiZaharia   view
52 2011-02-13 11:08:56 21408 to previous BertrandDelacretaz   view
51 2011-02-13 01:23:56 21385 to previous MohammadNour   view
50 2011-02-12 22:08:07 21475 to previous MohammadNour   view
49 2011-02-11 18:36:02 21387 to previous KevanMiller   view
48 2011-02-11 07:11:34 21380 to previous ChrisMattmann sign off on SIS report view
47 2011-02-11 02:02:34 21371 to previous SeanMcCleese   view
46 2011-02-10 23:48:14 19783 to previous Upayavira   view
45 2011-02-10 08:51:00 19762 to previous StefanBodewig sign off EasyAnt report view
44 2011-02-09 23:21:57 19753 to previous AteDouma   view
43 2011-02-09 20:43:22 19748 to previous RossGardler Add a comment to wookie report and sign off view
42 2011-02-09 20:04:36 19554 to previous TomWhite2   view
41 2011-02-09 18:55:05 19533 to previous DennisLundberg Sign off on NPanday report view
40 2011-02-09 18:05:30 19517 to previous MarcelOffermans   view
39 2011-02-09 15:44:56 19511 to previous AlexanderBroekhuis   view
38 2011-02-09 14:17:11 18851 to previous ScottWilson   view
37 2011-02-09 14:13:02 18648 to previous ScottWilson   view
36 2011-02-09 13:57:10 17586 to previous andrus   view
35 2011-02-09 13:15:15 17576 to previous BrettPorter   view
34 2011-02-09 12:49:27 17459 to previous BensonMargulies   view
33 2011-02-09 12:43:39 17444 to previous BertrandDelacretaz   view
32 2011-02-09 09:01:28 17421 to previous Matthew Sacks   view
31 2011-02-09 08:29:16 17358 to previous PidSter   view
30 2011-02-09 08:03:52 17320 to previous antelder   view
29 2011-02-09 08:01:09 17311 to previous antelder   view
28 2011-02-09 05:17:19 17307 to previous Matthew Sacks   view
27 2011-02-09 04:58:00 17233 to previous SorenLassen   view
26 2011-02-09 03:02:07 16448 to previous lresende   view
25 2011-02-09 02:16:55 14910 to previous KevanMiller   view
24 2011-02-09 01:14:21 14892 to previous JerryChen   view
23 2011-02-08 23:00:21 13961 to previous PidSter   view
22 2011-02-08 17:24:11 13319 to previous bblfish added Clerezza info view
21 2011-02-08 17:12:19 12472 to previous DavidJencks mentor sign-off for amber view
20 2011-02-08 15:15:21 12459 to previous GrantIngersoll   view
19 2011-02-08 10:03:37 12417 to previous PidSter   view
18 2011-02-08 10:02:21 11439 to previous BertrandDelacretaz   view
17 2011-02-07 20:28:28 10734 to previous joern   view
16 2011-02-07 19:55:17 9434 to previous BryantLuk   view
15 2011-02-07 19:19:22 8564 to previous aaronpeeler   view
14 2011-02-07 19:16:47 8557 to previous aaronpeeler   view
13 2011-02-07 18:00:34 7637 to previous ChristianGrobmeier   view
12 2011-02-07 07:19:55 7627 to previous apadilla   view
11 2011-02-05 08:28:09 6564 to previous TobiasSchlitt Added: Report for Zeta Components. view
10 2011-02-04 14:36:50 6043 to previous DamianSteer Copy edit jena view
9 2011-02-04 14:31:48 6059 to previous AndySeaborne Add report draft for Jena view
8 2011-02-03 09:41:53 4787 to previous ThorstenScherler   view
7 2011-02-01 21:25:54 4161 to previous antoine   view
6 2011-02-01 21:24:52 4164 to previous antoine   view
5 2011-02-01 19:47:35 3777 to previous TomWhite2 Add report for Whirr view
4 2011-02-01 05:07:54 2804 to previous DavidCrossley   view
3 2011-02-01 05:07:20 2950 to previous DavidCrossley start the next template view
2 2011-01-21 06:12:56 1002 to previous DavidCrossley Add due dates for upcoming meetings. view
1 2010-12-14 02:44:38 1038 DavidCrossley start the next template view